Mesa, AZ

10:46 PM MST on August 31, 2016 (GMT -0700)
Phoenix-Mesa Gateway Airport

Weather History for KIWA - October, 2012

Change the Weather History Date:

Thursday, October 4, 2012

  Actual Average Record
Temperature  
Mean Temperature 84 °F -  
Max Temperature 96 °F 90 °F 100 °F (2006)
Min Temperature 71 °F 64 °F 53 °F (2002)
Cooling Degree Days 18    
Growing Degree Days 34 (Base 50)    
Moisture  
Dew Point 38 °F    
Average Humidity 24    
Maximum Humidity 35    
Minimum Humidity 12    
Precipitation  
Precipitation 0.00 in - - ()
Sea Level Pressure  
Sea Level Pressure 30.00 in    
Wind  
Wind Speed 6 mph (ESE)    
Max Wind Speed 10 mph    
Max Gust Speed -    
Visibility 11 miles    
Events      
Averages and records for this station are not official NWS values.
T = Trace of Precipitation, MM = Missing Value Source: NWS Daily Summary

Daily Weather History Graph

Daily Weather History Graph

Search for Another Location

Airport or City:

Trip Planner

Search our weather history database for the weather conditions in past years. The results will help you decide how hot, cold, wet, or windy it might be!

Date:

Astronomy

Oct. 04, 2012 Rise Set
Actual Time 6:23 AM MST 6:06 PM MST
Civil Twilight 5:58 AM MST 6:31 PM MST
Nautical Twilight 5:29 AM MST 6:59 PM MST
Astronomical Twilight 5:01 AM MST 7:28 PM MST
Moon 8:58 PM MST (10/4) 10:30 AM MST (10/4)
Length of Visible Light 12h 32m
Length of Day
11h 42m
Waning Gibbous, 81% of the Moon is Illuminated
Oct 4
Waning Gibbous
Oct 8
Last Quarter
Oct 15
New
Oct 21
First Quarter
Oct 29
Full

Hourly Weather History & Observations

Time (MST) Temp. Dew Point Humidity Pressure Visibility Wind Dir Wind Speed Gust Speed Precip Events Conditions
12:15 AM 73.4 °F 33.8 °F 23% 29.97 in 10.0 mi ESE 6.9 mph - N/A   Clear
12:35 AM 73.4 °F 35.6 °F 25% 29.97 in 10.0 mi East 8.1 mph - N/A   Clear
12:55 AM 73.4 °F 33.8 °F 23% 29.98 in 10.0 mi East 8.1 mph - N/A   Clear
1:15 AM 73.4 °F 33.8 °F 23% 29.98 in 10.0 mi East 8.1 mph - N/A   Clear
1:35 AM 73.4 °F 33.8 °F 23% 29.99 in 10.0 mi ESE 6.9 mph - N/A   Clear
1:55 AM 71.6 °F 37.4 °F 29% 30.00 in 10.0 mi SE 6.9 mph - N/A   Clear
2:15 AM 71.6 °F 42.8 °F 35% 29.99 in 10.0 mi SE 9.2 mph - N/A   Clear
2:35 AM 71.6 °F 41.0 °F 33% 29.99 in 10.0 mi ESE 8.1 mph - N/A   Clear
2:55 AM 71.6 °F 41.0 °F 33% 29.99 in 10.0 mi ESE 8.1 mph - N/A   Clear
3:15 AM 71.6 °F 37.4 °F 29% 29.99 in 10.0 mi ESE 8.1 mph - N/A   Clear
3:35 AM 73.4 °F 37.4 °F 27% 30.00 in 10.0 mi ESE 9.2 mph - N/A   Clear
3:55 AM 71.6 °F 37.4 °F 29% 30.00 in 10.0 mi ESE 8.1 mph - N/A   Clear
4:15 AM 71.6 °F 37.4 °F 29% 30.00 in 10.0 mi ESE 6.9 mph - N/A   Clear
4:35 AM 71.6 °F 35.6 °F 27% 30.01 in 10.0 mi ESE 6.9 mph - N/A   Clear
4:55 AM 71.6 °F 35.6 °F 27% 30.01 in 10.0 mi ESE 8.1 mph - N/A   Clear
5:15 AM 71.6 °F 35.6 °F 27% 30.02 in 10.0 mi ESE 8.1 mph - N/A   Clear
5:47 AM 73.4 °F 39.2 °F 29% 30.02 in 20.0 mi ESE 5.8 mph - N/A   Partly Cloudy
6:47 AM 71.6 °F 39.2 °F 31% 30.04 in 35.0 mi ESE 6.9 mph - N/A   Mostly Cloudy
7:47 AM 75.2 °F 37.4 °F 25% 30.05 in 35.0 mi ESE 10.4 mph - N/A   Scattered Clouds
8:47 AM 80.6 °F 39.2 °F 23% 30.06 in 35.0 mi SE 8.1 mph - N/A   Scattered Clouds
9:47 AM 84.2 °F 37.4 °F 19% 30.08 in 35.0 mi SE 6.9 mph - N/A   Scattered Clouds
10:47 AM 87.8 °F 37.4 °F 17% 30.08 in 35.0 mi Variable 3.5 mph - N/A   Scattered Clouds
11:47 AM 91.4 °F 37.4 °F 15% 30.06 in 35.0 mi SW 8.1 mph - N/A   Scattered Clouds
12:47 PM 93.2 °F 35.6 °F 13% 30.03 in 35.0 mi Variable 4.6 mph - N/A   Scattered Clouds
1:47 PM 93.2 °F 35.6 °F 13% 30.00 in 35.0 mi Calm Calm - N/A   Scattered Clouds
2:47 PM 96.8 °F 35.6 °F 12% 29.98 in 35.0 mi Calm Calm - N/A   Scattered Clouds
3:47 PM 96.8 °F 35.6 °F 12% 29.97 in 35.0 mi Variable 4.6 mph - N/A   Scattered Clouds
4:47 PM 95.0 °F 33.8 °F 12% 29.95 in 35.0 mi WSW 5.8 mph - N/A   Scattered Clouds
5:47 PM 93.2 °F 33.8 °F 12% 29.95 in 35.0 mi WSW 8.1 mph - N/A   Scattered Clouds
7:47 PM 84.2 °F 37.4 °F 19% 29.97 in 20.0 mi WNW 3.5 mph - N/A   Scattered Clouds
7:55 PM 82.4 °F 37.4 °F 20% 29.97 in 10.0 mi Calm Calm - N/A   Clear
8:15 PM 82.4 °F 37.4 °F 20% 29.97 in 10.0 mi Calm Calm - N/A   Clear
8:35 PM 82.4 °F 37.4 °F 20% 29.97 in 10.0 mi Calm Calm - N/A   Clear
8:47 PM 84.2 °F 39.2 °F 20% 29.97 in 20.0 mi Calm Calm - N/A   Partly Cloudy
8:55 PM 82.4 °F 39.2 °F 21% 29.98 in 10.0 mi Calm Calm - N/A   Clear
9:15 PM 77.0 °F 42.8 °F 29% 29.98 in 10.0 mi SE 3.5 mph - N/A   Clear
9:35 PM 78.8 °F 42.8 °F 28% 29.99 in 10.0 mi SSE 3.5 mph - N/A   Clear
9:55 PM 77.0 °F 42.8 °F 29% 29.99 in 10.0 mi Calm Calm - N/A   Clear
10:15 PM 77.0 °F 42.8 °F 29% 30.00 in 10.0 mi Calm Calm - N/A   Clear
10:35 PM 73.4 °F 41.0 °F 31% 30.00 in 10.0 mi SE 4.6 mph - N/A   Clear
10:55 PM 73.4 °F 42.8 °F 33% 30.00 in 10.0 mi ESE 5.8 mph - N/A   Clear
11:15 PM 71.6 °F 41.0 °F 33% 30.00 in 10.0 mi ESE 5.8 mph - N/A   Clear
11:35 PM 71.6 °F 42.8 °F 35% 30.00 in 10.0 mi ESE 6.9 mph - N/A   Clear
11:55 PM 71.6 °F 41.0 °F 33% 30.00 in 10.0 mi ESE 4.6 mph - N/A   Clear